Vertical_Velocity
1 -2 -2 -7 -3 -1 0 1 0 -3 -6 7 -2 -1 -4 -4 -2 -2 -0 -2 -0 -2 5 -5 -1 3 12 15 7 2 -1 3 -0 -1 -2 2 2 -0 -1 2 0 -2 -5 1
-2 -1 -6 -0 1 1 1 1 -5 -4 -2 8 -1 -7 -2 -0 -2 -0 1 4 -0 -0 3 9 2 0 2 6 2 3 5 3 2 0 -2 -3 -5 1 2 -0 2 -1 2 -6
-3 -8 1 1 0 3 -2 1 -2 2 -2 -0 3 -6 -3 -6 0 4 -1 10 18 14 6 0 5 5 1 -5 1 0 2 3 5 6 2 3 5 0 -2 2 3 3 0 0
-2 -6 1 1 -0 2 3 -1 2 1 1 -2 -5 -15 -6 -2 1 -2 1 1 5 2 -0 2 4 3 -1 3 -9 2 -5 -1 5 4 9 1 -2 -3 -2 -5 -1 4 -1 3
-17 -0 1 2 -11 1 -10 2 2 2 1 3 2 2 -9 -2 -1 2 3 3 4 4 -1 -2 -0 1 1 1 4 -6 -5 -1 6 2 0 1 -6 4 -4 -3 -2 -1 4 -4
-5 0 -0 -6 -3 0 -2 1 -0 -1 -1 2 -5 -4 -6 0 0 3 3 5 2 2 6 2 1 3 1 3 -0 -2 -4 -5 -2 1 -5 2 1 2 -4 -3 -4 -2 -4 1
-0 -3 -2 3 3 -1 2 1 -1 -3 -2 -6 -0 1 -3 1 2 -1 1 1 1 -7 6 -2 -4 -5 -3 7 3 -2 -11 -4 -11 -7 -1 5 -0 -1 -1 -1 -2 -4 -3 -3
-1 -13 -1 -1 -7 -9 -2 -6 -6 -2 -1 -4 -1 -4 -7 -2 -0 -2 -2 -2 -5 -6 -4 -9 -1 -7 -3 -4 -4 -5 -4 -5 4 5 -1 -5 -3 -0 0 1 -3 -2 -4 -4
0 -4 -0 0 -0 -10 -2 -2 -6 -3 -0 1 -4 1 3 3 3 2 2 2 2 1 -2 -1 -3 2 -8 -9 -3 -6 -7 -5 0 -2 -7 -5 -1 1 -1 1 -2 -3 0 -4
-5 -2 -1 -1 -2 -1 -9 -7 -9 -4 -2 0 -2 -1 -4 4 -0 0 1 -1 0 1 -4 -0 2 -4 -9 -8 -1 -0 -7 6 3 -1 3 -5 -1 -0 -1 -1 -2 -1 -1 -0
-2 -2 -1 -2 -1 -5 0 1 -1 -7 -3 -2 -0 -7 -4 -6 -5 -3 -2 -0 1 1 2 4 2 -1 4 1 1 -5 -1 7 -4 -7 -9 0 3 2 0 1 -1 -1 -0 1
-0 -3 -1 -7 -2 -0 -1 -3 -4 -4 -3 -2 -2 -12 -1 -2 -2 -3 -1 2 1 2 1 0 0 2 1 0 3 0 5 7 -2 1 -1 -2 2 -1 -5 1 1 2 -0 2
-7 -3 -2 -6 -4 -2 1 -0 -1 -1 -1 -4 3 -9 -0 1 2 4 1 4 1 -1 -1 -3 0 0 -1 -2 -6 -9 -6 -9 -3 -4 4 3 -1 -3 3 3 1 0 -0 -0
-2 -0 -5 -8 -6 -3 1 1 -0 -2 0 -3 -5 -3 -0 3 0 4 5 2 -1 -2 -1 -2 -2 -3 -3 -2 -5 0 7 -1 2 5 -5 -3 3 1 -1 -0 1 0 0 -1
-4 -0 1 -1 -0 0 -1 -1 -0 2 -5 3 -5 1 -1 -1 -1 1 -1 0 1 1 -3 -1 -1 -3 -3 -0 -3 3 2 -9 -5 -7 11 7 -1 -1 2 1 -0 -0 0 1
0 -1 -0 -1 -0 0 1 -0 0 -0 -1 1 1 -0 -1 3 2 1 2 1 -1 -0 0 -1 -2 -6 -8 -6 1 -4 -7 2 3 12 -3 -4 1 0 -3 -3 -1 0 1 1
-1 -2 -1 -2 0 0 2 -6 -2 -1 -0 -1 -1 -6 0 3 1 -1 -0 -2 -1 -2 -2 -2 -4 -4 3 1 -0 -0 -0 5 7 4 -2 2 -1 -3 -1 7 5 -1 -3 6
-1 -1 -0 -1 0 1 -1 0 1 -1 0 -0 -0 1 -1 -2 2 -1 2 0 2 0 -1 -2 -1 1 2 4 5 5 4 4 3 -4 0 4 -3 -2 -1 -3 -5 1 -3 -11
-1 -2 -0 -2 -1 -5 -2 -2 -2 -4 -5 -1 -1 1 2 1 -1 1 -0 -1 -1 -0 -1 -2 3 5 5 4 5 3 2 2 -2 -1 -1 -3 -2 0 -4 -8 -4 2 -3 -2
1 -1 -4 1 -1 -4 -9 0 -0 -2 -9 -1 -1 -0 -2 0 2 -2 -3 -1 -1 -1 -1 1 2 4 2 -0 2 0 -2 -2 -1 1 -6 3 2 -2 -7 -3 -1 0 -1 -4
2 1 -2 0 -1 -6 -1 -1 0 -12 -23 0 -1 0 1 -1 -4 -4 -2 -0 1 -0 -0 1 1 -2 -2 1 1 -0 -1 -2 2 -1 2 2 -1 -3 -3 -3 1 0 -1 -3
-6 -4 -1 -1 -1 -8 -2 -0 -5 -7 2 -1 -1 -2 1 3 1 0 -1 -1 -1 1 2 2 -0 -2 0 1 3 -0 -3 1 3 1 2 0 -2 -2 -4 -1 -0 -2 -3 -2
-6 -10 -10 -7 -9 -0 2 -1 1 1 -0 -2 -1 -1 -0 1 3 2 0 3 3 1 0 -0 -3 0 -1 -0 1 0 2 3 4 1 0 -3 1 -1 0 -2 -4 -4 -3 -5
-0 -0 -3 -2 0 -0 0 -0 1 -2 -1 -0 -1 -1 1 -6 -0 1 2 2 0 2 -0 -0 -1 -1 0 1 1 1 7 2 -0 -4 -4 -1 -0 1 -1 -2 -1 -0 -2 -0
-4 -3 -1 2 2 1 1 2 -5 -1 -1 -1 1 -0 -2 -2 2 -0 0 1 1 -1 1 -2 0 0 -0 2 1 7 0 1 -5 -2 2 2 -0 -2 -2 -4 -4 -3 -3 -1
-1 -3 -3 -6 -4 -4 -2 2 -4 -2 -2 0 -1 0 3 1 -3 0 -0 -1 -1 -1 -3 0 -0 -0 -1 2 1 3 0 -4 -4 -1 -1 -1 0 1 -1 -0 -1 -2 -0 2
Height
1493 1499 1503 1498 1499 1498 1500 1502 1505 1502 1494 1491 1483 1472 1474 1473 1470 1465 1461 1462 1460 1460 1461 1461 1462 1461 1460 1456 1457 1457 1460 1459 1457 1457 1458 1458 1460 1460 1459 1458 1458 1458 1459 1458
1496 1500 1492 1492 1496 1497 1498 1500 1502 1495 1489 1488 1481 1471 1468 1469 1467 1465 1460 1458 1458 1457 1460 1461 1462 1461 1460 1460 1459 1460 1459 1458 1456 1455 1454 1455 1455 1455 1455 1454 1455 1455 1453 1453
1494 1490 1487 1492 1495 1496 1495 1497 1493 1495 1488 1483 1482 1471 1465 1464 1464 1462 1460 1457 1462 1465 1464 1466 1464 1462 1462 1462 1461 1460 1460 1458 1456 1452 1450 1450 1449 1450 1451 1450 1449 1450 1450 1449
1490 1485 1486 1490 1491 1491 1497 1488 1486 1486 1492 1492 1481 1483 1467 1466 1472 1471 1470 1468 1468 1469 1471 1472 1469 1465 1463 1462 1463 1461 1461 1459 1456 1452 1447 1444 1444 1443 1444 1444 1443 1442 1442 1442
1486 1480 1484 1487 1484 1484 1488 1482 1483 1482 1487 1488 1484 1497 1470 1472 1476 1480 1478 1477 1477 1475 1473 1474 1473 1471 1468 1465 1460 1461 1459 1458 1453 1449 1445 1443 1442 1439 1436 1437 1436 1434 1435 1435
1480 1477 1478 1478 1477 1477 1478 1481 1482 1485 1488 1494 1475 1484 1481 1478 1479 1481 1481 1480 1480 1483 1478 1475 1475 1474 1472 1467 1464 1460 1456 1454 1451 1447 1444 1442 1437 1433 1430 1430 1428 1426 1424 1426
1477 1476 1471 1473 1479 1474 1478 1484 1491 1498 1499 1490 1474 1481 1477 1479 1481 1483 1484 1482 1480 1483 1480 1476 1474 1472 1470 1466 1461 1455 1455 1451 1451 1445 1444 1438 1433 1429 1425 1422 1419 1417 1415 1415
1480 1482 1467 1464 1470 1473 1475 1479 1497 1490 1490 1488 1477 1479 1473 1478 1480 1481 1481 1478 1479 1481 1480 1478 1475 1472 1469 1465 1462 1460 1456 1453 1449 1442 1434 1432 1429 1424 1419 1415 1411 1410 1408 1406
1478 1474 1459 1460 1460 1463 1473 1479 1475 1486 1489 1490 1480 1480 1479 1479 1479 1479 1478 1478 1476 1474 1477 1478 1477 1471 1470 1469 1466 1460 1455 1454 1447 1436 1434 1431 1427 1421 1415 1409 1406 1404 1401 1398
1462 1469 1460 1459 1459 1461 1464 1468 1484 1496 1492 1484 1474 1471 1473 1469 1472 1475 1476 1476 1477 1476 1479 1478 1474 1470 1471 1470 1466 1459 1454 1448 1439 1435 1432 1428 1424 1418 1411 1405 1400 1398 1395 1392
1458 1463 1465 1462 1463 1465 1468 1470 1474 1480 1489 1484 1478 1466 1455 1458 1460 1467 1471 1472 1473 1475 1476 1475 1472 1472 1469 1466 1461 1458 1455 1445 1437 1434 1431 1428 1421 1413 1406 1400 1395 1392 1388 1384
1457 1462 1469 1463 1459 1458 1457 1461 1466 1480 1477 1479 1480 1461 1449 1450 1456 1462 1465 1468 1471 1473 1474 1473 1473 1469 1466 1462 1457 1455 1447 1439 1434 1435 1430 1425 1417 1408 1405 1398 1392 1386 1382 1377
1456 1469 1470 1462 1464 1458 1458 1457 1458 1461 1468 1463 1470 1461 1451 1454 1458 1460 1464 1469 1473 1475 1475 1474 1472 1468 1464 1461 1456 1454 1448 1442 1441 1437 1431 1422 1415 1410 1403 1396 1389 1383 1378 1373
1451 1459 1456 1453 1450 1453 1458 1455 1455 1459 1471 1462 1457 1456 1452 1458 1461 1465 1468 1471 1474 1475 1475 1473 1470 1468 1466 1463 1461 1458 1450 1445 1444 1435 1430 1425 1416 1409 1403 1396 1389 1383 1377 1372
1453 1458 1456 1451 1447 1449 1453 1453 1455 1457 1460 1465 1455 1454 1461 1459 1461 1465 1467 1472 1474 1474 1475 1474 1472 1470 1469 1466 1463 1458 1453 1449 1445 1442 1435 1422 1417 1413 1406 1398 1392 1386 1380 1374
1449 1457 1453 1452 1449 1448 1453 1454 1454 1451 1451 1450 1451 1459 1462 1463 1463 1466 1469 1471 1473 1475 1474 1473 1472 1471 1471 1470 1466 1460 1458 1455 1450 1441 1431 1428 1423 1415 1408 1403 1397 1390 1383 1377
1450 1455 1462 1457 1453 1453 1456 1447 1447 1443 1446 1447 1457 1450 1459 1464 1466 1468 1470 1472 1474 1474 1475 1475 1474 1475 1473 1470 1466 1462 1458 1454 1447 1439 1434 1430 1425 1421 1415 1407 1401 1393 1387 1381
1449 1452 1461 1457 1455 1463 1448 1449 1448 1447 1452 1451 1451 1454 1458 1462 1466 1469 1470 1471 1472 1472 1472 1474 1475 1475 1473 1471 1467 1463 1458 1452 1446 1441 1437 1432 1428 1425 1419 1414 1409 1403 1395 1390
1444 1450 1456 1459 1458 1450 1448 1451 1454 1452 1450 1452 1454 1458 1460 1465 1467 1469 1468 1469 1470 1470 1471 1474 1475 1474 1471 1469 1466 1462 1458 1453 1448 1445 1440 1436 1433 1429 1426 1421 1417 1411 1405 1399
1440 1441 1449 1462 1459 1478 1455 1449 1448 1451 1458 1448 1451 1455 1459 1464 1466 1467 1467 1468 1469 1471 1473 1474 1473 1472 1470 1469 1466 1463 1459 1456 1452 1449 1446 1442 1438 1435 1432 1428 1423 1418 1413 1408
1442 1445 1442 1454 1458 1448 1444 1447 1448 1461 1456 1448 1450 1453 1457 1459 1459 1461 1466 1469 1471 1472 1474 1474 1474 1472 1472 1470 1468 1464 1462 1459 1457 1455 1451 1447 1444 1442 1439 1435 1430 1425 1420 1414
1429 1437 1449 1458 1461 1450 1442 1448 1450 1448 1448 1449 1451 1452 1454 1455 1457 1460 1465 1468 1471 1473 1474 1474 1474 1474 1474 1472 1469 1466 1464 1463 1461 1458 1455 1451 1450 1446 1444 1440 1435 1430 1425 1419
1431 1429 1439 1438 1440 1441 1441 1442 1444 1445 1446 1448 1449 1450 1451 1453 1457 1461 1465 1469 1472 1473 1474 1474 1475 1475 1474 1472 1470 1469 1467 1466 1463 1461 1458 1456 1454 1450 1447 1442 1438 1433 1428 1424
1425 1425 1432 1436 1440 1441 1441 1442 1443 1444 1446 1448 1449 1450 1452 1454 1459 1463 1466 1469 1472 1473 1474 1475 1475 1475 1474 1474 1473 1471 1469 1468 1466 1464 1462 1460 1456 1453 1450 1447 1443 1438 1434 1430
1422 1423 1430 1436 1439 1441 1441 1441 1444 1445 1447 1449 1451 1453 1455 1458 1461 1464 1467 1470 1472 1474 1475 1476 1476 1476 1476 1476 1475 1473 1471 1470 1469 1468 1466 1464 1461 1458 1455 1451 1448 1444 1442 1439
1420 1422 1426 1429 1426 1431 1434 1439 1442 1445 1447 1450 1452 1455 1458 1461 1463 1466 1468 1471 1473 1474 1476 1477 1477 1478 1478 1477 1476 1474 1474 1473 1473 1471 1469 1467 1465 1462 1460 1457 1454 1451 1449 1446